Regional Weather Roundup
Issued by NWS

Home | Current Version | Previous Version | Graphics & Text | Print | Product List | Glossary On
Versions: 1 2 3 4 5 6 7 8 9 10 11 12 13 14 15 16 17 18 19 20 21 22 23 24 25 26 27 28 29 30 31 32 33 34 35 36 37 38 39 40 41 42 43 44 45 46 47 48 49 50
000
ASUS43 KLSX 232107
RWRMO

WEATHER SUMMARY FOR MISSOURI
NATIONAL WEATHER SERVICE SPRINGFIELD MO
300 PM CST FRI FEB 23 2018

NOTE: "FAIR" INDICATES FEW OR NO CLOUDS BELOW 12,000 FEET WITH NO
       SIGNIFICANT WEATHER AND/OR OBSTRUCTIONS TO VISIBILITY.
       CURRENT SKY AND/OR WEATHER CONDITIONS ARE NOT AVAILABLE FOR
       CHILLICOTHE AND FARMINGTON.

MOZ001>031-035>038-043-044-053-054-232200-
...NORTHERN AND WESTERN MISSOURI...

CITY           SKY/WX    TMP DP  RH WIND       PRES   REMARKS
KANSAS CTY INT CLOUDY    34  29  82 NE7       30.25F WCI  28
KANSAS C DTWN  CLOUDY    36  28  73 N3        30.26F
LEE`S SUMMIT   CLOUDY    35  32  88 NE6       30.25F
ST JOSEPH      CLOUDY    36  30  79 N7        30.28F
CHILLICOTHE      N/A     38  30  73 N6        30.27F
KIRKSVILLE     CLOUDY    38  33  82 NW6       30.26F

$$
MOZ066>068-077>081-088>096-101>105-232200-
...SOUTHWEST MISSOURI...

CITY           SKY/WX    TMP DP  RH WIND       PRES   REMARKS
SPRINGFIELD    CLOUDY    46  42  86 S5        30.21F
JOPLIN         CLOUDY    42  41  96 E10       30.19F
BRANSON        LGT RAIN  45  45 100 NW3       30.26S FOG

$$
MOZ032>034-039>042-045>050-055>058-069>072-232200-
...CENTRAL MISSOURI...

CITY           SKY/WX    TMP DP  RH WIND       PRES   REMARKS
COLUMBIA       CLOUDY    38  35  89 NW3       30.26F
JEFFERSON CITY CLOUDY    40  36  86 N7        30.27F
ROLLA          CLOUDY    44  42  93 VRB3      30.24F
SEDALIA        CLOUDY    39  36  89 N5        30.27F
WHITEMAN AFB   CLOUDY    37  34  87 NE5       30.22S
WARRENSBURG    CLOUDY    36  32  87 N6        30.26F
OSAGE BEACH    CLOUDY    42  39  89 NW3       30.26R

$$
MOZ051-052-059>065-232200-
...EAST CENTRAL MISSOURI...

CITY           SKY/WX    TMP DP  RH WIND       PRES   REMARKS
ST LOUIS INTL  CLOUDY    48  42  80 NW7       30.25F
SPIRIT OF STL  CLOUDY    48  42  80 SW5       30.24F
ST CHARLES       N/A     46  41  82 NW7       30.25S

$$
MOZ072>076-082>087-097>100-106>115-232200-
...SOUTH CENTRAL AND SOUTHEAST MISSOURI...

CITY           SKY/WX    TMP DP  RH WIND       PRES   REMARKS
CAPE GIRARDEAU PTSUNNY   54  50  86 S5        30.25F
FARMINGTON     CLOUDY    50  46  86 CALM      30.25R
POPLAR BLUFF   CLOUDY    52  48  86 MISG      30.25F
WEST PLAINS    LGT RAIN  48  45  89 SE10      30.21F

$$



USA.gov is the U.S. government's official web portal to all federal, state and local government web resources and services.